Location: Boiro
(42.6475°N, 8.8834°W)
Time: 12:45:56
(UTC+02:00)

deb Agena D - Pass Details

Date: 10 July 2022
Orbit: 997 x 1025 km, 100.1° (Epoch: 16 August)

Event Time Altitude Azimuth Distance (km) Brightness Sun altitude
Exits shadow 02:41:08 30° 241° (WSW) 1,741 ? -25.1°
Maximum altitude 02:42:25 33° 263° (W) 1,663 ? -25.1°
Drops below altitude 10° 02:48:04 10° 326° (NW) 2,825 ? -25.1°
Sets 02:50:52 0° 336° (NNW) 3,780 ? -25.1°
